Starlink 33834

operational
NORAD ID: 63586 Int'l Des: 2025-076 Owner: SPXS Country: US Constellation: starlink
LEOCIRCULAR

Starlink 33834について

説明を読み込み中...

リアルタイム位置

3D地球を読み込み中...

次回通過

高度履歴

Altitude vs Time

uPlot chart will show altitude changes over time

軌道要素

1 63586U 25076T 25352.56853747 .00031584 00000-0 11520-2 0 9992
2 63586 43.0024 59.8539 0001477 279.4229 80.6455 15.27589471 39421
Epoch: Dec 18, 2025 • Age: 16 hours

現在のステータス

高度 484.3 km
速度 7.62 km/s
衛星直下点 -11.23°S, 123.1°W
打ち上げ日 Apr 14, 2025
運用期間 0.6 years
タイプ internet

技術仕様

分類 Payload
質量 575.00 kg
乾燥質量 530.00 kg
総質量 575.00 kg
長さ 0.30 m
直径 4.10 m
スパン 29.00 m
形状 Box + pan
製造者 SPXS
バスタイプ Starlink V2MO
フェーズステータス In Orbit
所有者/国 SPXS/US

大規模コンステレーション

Loading constellations...